Regional Weather Roundup
Issued by NWS

Home | Current Version | Previous Version | Text Only | Print | Product List | Glossary Off
Versions: 1 2 3 4 5 6 7 8 9 10 11 12 13 14 15 16 17 18 19 20 21 22 23 24 25 26 27 28 29 30 31 32 33 34 35 36 37 38 39 40 41 42 43 44 45 46 47 48 49 50

000
ASUS43 KDMX 272201
RWRIA

WEATHER ROUNDUP FOR IOWA
NATIONAL WEATHER SERVICE DES MOINES IA
400 PM CST MON FEB 27 2017

NOTE: "FAIR" INDICATES FEW OR NO CLOUDS BELOW 12,000 FEET WITH NO
SIGNIFICANT WEATHER AND/OR OBSTRUCTIONS TO VISIBILITY.

* - THESE STATIONS ARE NOT NWS STATIONS...THUS NOT UNDER NWS
QUALITY CONTROL.  THEY ALSO DO NOT REPORT WEATHER SUCH
AS PRECIPITATION OR FOG.

IAZ001>003-012>014-020>022-031>034-043>046-272300-
   NORTHWEST IOWA

CITY           SKY/WX    TMP DP  RH WIND       PRES   REMARKS
CARROLL *      MOSUNNY   46  39  76 SE8       29.83F
CHEROKEE *     PTSUNNY   40  33  74 SE7       29.82F
DENISON *      CLOUDY    48  32  53 SE8G15    29.79F
LE MARS *      PTSUNNY   45  30  57 SE12      29.78F
SHELDON *      MOSUNNY   43  34  70 SE15      29.78F
SIOUX CITY     SUNNY     45  31  58 SE10      29.78F
SPENCER        CLOUDY    39  29  67 SE12      29.83F WCI  32
STORM LAKE *   MOSUNNY   37  32  81 SE8       29.83F WCI  31
$$

IAZ055>058-069>071-079>083-090>094-272300-
   SOUTHWEST IOWA

CITY           SKY/WX    TMP DP  RH WIND       PRES   REMARKS
ATLANTIC *     CLOUDY    54  25  32 SE14G20   29.82F
AUDUBON *      CLOUDY    50  28  43 SE9G17    29.83F
CLARINDA *     CLOUDY    54  27  35 SE8       29.84F
COUNCIL BLFS * CLOUDY    54  25  32 S17G26    29.78F
CRESTON *      CLOUDY    52  23  32 SE18      29.87F
HARLAN  *      CLOUDY    50  28  43 SE16      29.83F
LAMONI         CLOUDY    56  22  26 SE12      29.86F
RED OAK *      CLOUDY    55  23  28 SE18G25   29.80F
SHENANDOAH *   CLOUDY    55  28  35 SE18      29.79F
$$

IAZ047>049-059>061-072>074-084-272300-
   CENTRAL IOWA

CITY           SKY/WX    TMP DP  RH WIND       PRES   REMARKS
AMES           CLOUDY    51  31  46 SE14      29.89F
ANKENY *       CLOUDY    54  25  32 SE13      29.89F
BOONE *        CLOUDY    48  34  57 SE10      29.87F
CHARITON *     CLOUDY    54  21  28 SE10G18   29.90S
DES MOINES     CLOUDY    55  24  30 SE13      29.89F
GRINNELL*      CLOUDY    52  28  39 SE12      29.93F
KNOXVILLE *    CLOUDY    55  21  26 SE12      29.89F
MARSHALLTOWN   PTSUNNY   52  30  43 SE10      29.90F
NEWTON *       CLOUDY    54  27  35 SE13      29.90F
PELLA *        CLOUDY    55  25  31 SE8       29.92F
PERRY *          N/A     49  32  50 SE16      29.86F
$$

IAZ004>006-015-016-023>025-035-036-272300-
   NORTH CENTRAL IOWA

CITY           SKY/WX    TMP DP  RH WIND       PRES   REMARKS
ALGONA *       CLOUDY    41  30  65 SE14      29.86F
CLARION *      CLOUDY    39  36  87 SE14      29.88F WCI  31
ESTHERVILLE    CLOUDY    36  29  75 SE10      29.84F WCI  28
FORT DODGE *   CLOUDY    41  28  60 E9        29.87F
MASON CITY     PTSUNNY   38  31  76 SE10      29.92F WCI  31
FOREST CITY *    N/A     37  32  81 SE9       29.89F WCI  31
WEBSTER CITY * CLOUDY    41  32  70 SE9       29.85F
IOWA FALLS *     N/A     48  37  65 SE10      29.91F
$$

IAZ007>011-017>019-026>030-037>042-050>054-066-272300-
   NORTHEAST IOWA

CITY           SKY/WX    TMP DP  RH WIND       PRES   REMARKS
CEDAR RAPIDS   CLOUDY    52  27  38 S10       29.96F
CHARLES CITY * PTSUNNY   43  36  75 S12       29.94F
CLINTON *      SUNNY     52  33  48 S12       30.01F
DECORAH *      SUNNY     46  32  57 S9G15     29.95S
DUBUQUE        SUNNY     50  31  48 S14       30.00R
MONTICELLO *   CLOUDY    50  36  57 S12       29.99S
OELWEIN *      MOSUNNY   48  36  61 S10       29.96F
WATERLOO       SUNNY     51  30  44 S13       29.94F
$$

IAZ064-065-067-068-078-272300-
   EAST CENTRAL IOWA

CITY           SKY/WX    TMP DP  RH WIND       PRES   REMARKS
DAVENPORT      CLOUDY    54  32  43 S12       30.00F
IOWA CITY      MOSUNNY   55  28  35 S8        29.99S
MUSCATINE *    CLOUDY    55  30  38 SE7       29.99S
QUAD CITIES    CLOUDY    56  31  38 S9        29.99F
$$

IAZ062-063-075>077-085>089-095>099-272300-
   SOUTHEAST IOWA

CITY           SKY/WX    TMP DP  RH WIND       PRES   REMARKS
BURLINGTON     CLOUDY    57  27  31 S10       29.97F
FAIRFIELD *    MOSUNNY   57  23  26 SE12      29.94F
FORT MADISON * PTSUNNY   57  28  33 S7        29.98F
KEOKUK *       PTSUNNY   57  27  30 SE9       29.96F
CENTERVILLE *    N/A     57  19  23 SE13      29.91F
OTTUMWA        PTSUNNY   56  19  23 SE14      29.92F
WASHINGTON *   CLOUDY    55  27  33 S9        29.97F
$$

ABBREVIATIONS USED IN REMARKS
   TC - TEMPERATURES IN CELSIUS
  WCI - WIND CHILL INDEX
   HX - HEAT INDEX
  VSB - VISIBILITY
$$




USA.gov is the U.S. government's official web portal to all federal, state and local government web resources and services.